Alva, OK

3:10 AM CDT on April 21, 2018 (GMT -0500)
Alva Regional

Weather History for KAVK - March, 2013

Change the Weather History Date:

Thursday, March 21, 2013

  Actual Average Record
Temperature  
Mean Temperature 45 °F -  
Max Temperature 57 °F 66 °F 84 °F (1953)
Min Temperature 33 °F 37 °F 14 °F (1974)
Degree Days  
Heating Degree Days 20    
Moisture  
Dew Point 30 °F    
Average Humidity 59    
Maximum Humidity 81    
Minimum Humidity 38    
Precipitation  
Precipitation 0.00 in - - ()
Sea Level Pressure  
Sea Level Pressure 29.73 in    
Wind  
Wind Speed 15 mph (ESE)    
Max Wind Speed 26 mph    
Max Gust Speed 32 mph    
Visibility 10 miles    
Events      
Averages and records for this station are not official NWS values.
T = Trace of Precipitation, MM = Missing Value Source: NWS Daily Summary

Daily Weather History Graph

Daily Weather History Graph

Search for Another Location

Airport or City:

Astronomy

Mar. 21, 2013 Rise Set
Actual Time 7:36 AM CDT 7:47 PM CDT
Civil Twilight 7:10 AM CDT 8:13 PM CDT
Nautical Twilight 6:40 AM CDT 8:43 PM CDT
Astronomical Twilight 6:09 AM CDT 9:14 PM CDT
Moon 2:26 PM CDT 3:51 AM CDT
Length of Visible Light 13h 02m
Length of Day
12h 11m
Waxing Gibbous, 69% of the Moon is Illuminated
Mar 21
Waxing Gibbous
Mar 27
Full
Apr 2
Last Quarter
Apr 10
New
Apr 18
First Quarter

Hourly Weather History & Observations

Time (CDT) Temp. Windchill Dew Point Humidity Pressure Visibility Wind Dir Wind Speed Gust Speed Precip Events Conditions
12:10 AM 39.2 °F 32.5 °F 28.4 °F 65% 29.96 in 10.0 mi SE 10.4 mph - N/A   Partly Cloudy
12:30 AM 39.2 °F 33.0 °F 26.6 °F 61% 29.94 in 10.0 mi SE 9.2 mph - N/A   Partly Cloudy
12:50 AM 37.4 °F 30.3 °F 26.6 °F 65% 29.93 in 10.0 mi SE 10.4 mph - N/A   Clear
1:10 AM 39.2 °F 32.5 °F 26.6 °F 61% 29.92 in 10.0 mi SE 10.4 mph - N/A   Clear
1:30 AM 39.2 °F 31.6 °F 26.6 °F 61% 29.92 in 10.0 mi SE 12.7 mph - N/A   Clear
1:50 AM 39.2 °F 31.6 °F 26.6 °F 61% 29.91 in 10.0 mi SE 12.7 mph - N/A   Partly Cloudy
2:10 AM 39.2 °F 31.6 °F 26.6 °F 61% 29.90 in 10.0 mi SE 12.7 mph - N/A   Scattered Clouds
2:30 AM 39.2 °F 31.2 °F 26.6 °F 61% 29.89 in 10.0 mi SE 13.8 mph - N/A   Mostly Cloudy
2:50 AM 39.2 °F 31.6 °F 26.6 °F 61% 29.88 in 10.0 mi SE 12.7 mph - N/A   Overcast
3:10 AM 39.2 °F 31.6 °F 26.6 °F 61% 29.87 in 10.0 mi SE 12.7 mph - N/A   Overcast
3:30 AM 39.2 °F 31.2 °F 26.6 °F 61% 29.85 in 10.0 mi SE 13.8 mph - N/A   Scattered Clouds
3:50 AM 39.2 °F 31.6 °F 26.6 °F 61% 29.85 in 10.0 mi SE 12.7 mph - N/A   Clear
4:10 AM 39.2 °F 31.2 °F 26.6 °F 61% 29.84 in 10.0 mi SE 13.8 mph 18.4 mph N/A   Clear
4:50 AM 39.2 °F 30.5 °F 26.6 °F 61% 29.82 in 10.0 mi SE 16.1 mph - N/A   Clear
5:10 AM 39.2 °F 30.8 °F 26.6 °F 61% 29.80 in 10.0 mi ESE 15.0 mph - N/A   Scattered Clouds
5:50 AM 37.4 °F 28.9 °F 26.6 °F 65% 29.79 in 10.0 mi ESE 13.8 mph - N/A   Partly Cloudy
6:10 AM 37.4 °F 28.5 °F 26.6 °F 65% 29.79 in 10.0 mi ESE 15.0 mph - N/A   Partly Cloudy
6:30 AM 37.4 °F 27.8 °F 26.6 °F 65% 29.78 in 10.0 mi ESE 17.3 mph - N/A   Clear
6:50 AM 37.4 °F 28.2 °F 24.8 °F 60% 29.78 in 10.0 mi ESE 16.1 mph - N/A   Clear
7:10 AM 37.4 °F 28.9 °F 24.8 °F 60% 29.78 in 10.0 mi ESE 13.8 mph - N/A   Clear
7:30 AM 37.4 °F 28.9 °F 24.8 °F 60% 29.77 in 10.0 mi ESE 13.8 mph - N/A   Clear
7:50 AM 35.6 °F 28.0 °F 24.8 °F 65% 29.78 in 10.0 mi East 10.4 mph - N/A   Clear
8:10 AM 33.8 °F 25.3 °F 24.8 °F 70% 29.78 in 10.0 mi East 11.5 mph - N/A   Clear
8:30 AM 35.6 °F 27.1 °F 24.8 °F 65% 29.77 in 10.0 mi East 12.7 mph - N/A   Clear
8:50 AM 35.6 °F 27.1 °F 24.8 °F 65% 29.77 in 10.0 mi East 12.7 mph - N/A   Clear
9:10 AM 37.4 °F 28.9 °F 26.6 °F 65% 29.76 in 10.0 mi ESE 13.8 mph - N/A   Clear
9:30 AM 39.2 °F 31.2 °F 26.6 °F 61% 29.75 in 9.0 mi ESE 13.8 mph - N/A   Clear
9:40 AM 39.2 °F 30.8 °F 28.4 °F 65% 29.74 in 10.0 mi ESE 15.0 mph - N/A   Clear
10:10 AM 44.6 °F 36.1 °F 28.4 °F 53% 29.73 in 10.0 mi SE 21.9 mph 26.5 mph N/A   Clear
10:30 AM 46.4 °F 39.0 °F 30.2 °F 53% 29.72 in 10.0 mi SE 19.6 mph 27.6 mph N/A   Clear
10:50 AM 46.4 °F 38.7 °F 30.2 °F 53% 29.72 in 10.0 mi SE 20.7 mph 24.2 mph N/A   Clear
11:10 AM 48.2 °F - 32.0 °F 54% 29.71 in 10.0 mi SE 20.7 mph 25.3 mph N/A   Clear
11:30 AM 50.0 °F - 32.0 °F 50% 29.70 in 10.0 mi SE 18.4 mph 23.0 mph N/A   Clear
11:50 AM 50.0 °F - 32.0 °F 50% 29.69 in 10.0 mi SE 17.3 mph 25.3 mph N/A   Clear
12:10 PM 51.8 °F - 32.0 °F 47% 29.68 in 10.0 mi SE 19.6 mph 24.2 mph N/A   Clear
12:30 PM 53.6 °F - 32.0 °F 44% 29.67 in 10.0 mi SE 20.7 mph 27.6 mph N/A   Clear
12:50 PM 53.6 °F - 32.0 °F 44% 29.66 in 10.0 mi SE 20.7 mph 24.2 mph N/A   Clear
1:10 PM 55.4 °F - 32.0 °F 41% 29.66 in 10.0 mi SE 19.6 mph 24.2 mph N/A   Clear
1:30 PM 55.4 °F - 32.0 °F 41% 29.65 in 10.0 mi SE 19.6 mph 24.2 mph N/A   Clear
1:50 PM 55.4 °F - 32.0 °F 41% 29.64 in 10.0 mi SE 18.4 mph 26.5 mph N/A   Clear
2:10 PM 57.2 °F - 32.0 °F 38% 29.63 in 10.0 mi SE 17.3 mph 23.0 mph N/A   Clear
2:30 PM 57.2 °F - 32.0 °F 38% 29.62 in 10.0 mi SE 18.4 mph 24.2 mph N/A   Clear
2:50 PM 57.2 °F - 32.0 °F 38% 29.61 in 10.0 mi SE 21.9 mph 25.3 mph N/A   Clear
3:10 PM 57.2 °F - 33.8 °F 41% 29.59 in 10.0 mi SE 19.6 mph 28.8 mph N/A   Clear
3:30 PM 57.2 °F - 33.8 °F 41% 29.58 in 10.0 mi SE 24.2 mph 31.1 mph N/A   Clear
3:50 PM 55.4 °F - 35.6 °F 47% 29.58 in 10.0 mi East 20.7 mph 27.6 mph N/A   Clear
4:10 PM 53.6 °F - 35.6 °F 51% 29.59 in 9.0 mi East 24.2 mph 31.1 mph N/A   Clear
4:30 PM 51.8 °F - 35.6 °F 54% 29.60 in 7.0 mi East 21.9 mph 32.2 mph N/A   Clear
4:50 PM 50.0 °F - 35.6 °F 58% 29.60 in 8.0 mi East 23.0 mph 31.1 mph N/A   Clear
5:10 PM 51.8 °F - 35.6 °F 54% 29.61 in 9.0 mi East 23.0 mph 31.1 mph N/A   Clear
5:30 PM 50.0 °F - 35.6 °F 58% 29.61 in 9.0 mi East 21.9 mph - N/A   Clear
5:50 PM 50.0 °F - 35.6 °F 58% 29.62 in 10.0 mi East 24.2 mph 29.9 mph N/A   Partly Cloudy
6:10 PM 48.2 °F - 35.6 °F 62% 29.62 in 10.0 mi East 26.5 mph - N/A   Partly Cloudy
6:30 PM 46.4 °F 38.3 °F 32.0 °F 57% 29.63 in 10.0 mi East 23.0 mph 28.8 mph N/A   Clear
6:50 PM 44.6 °F 36.6 °F 32.0 °F 61% 29.64 in 9.0 mi East 19.6 mph 28.8 mph N/A   Clear
7:10 PM 44.6 °F 36.4 °F 32.0 °F 61% 29.66 in 10.0 mi ENE 20.7 mph 25.3 mph N/A   Clear
7:30 PM 42.8 °F 34.3 °F 32.0 °F 66% 29.68 in 10.0 mi East 19.6 mph 25.3 mph N/A   Clear
7:50 PM 41.0 °F 31.6 °F 32.0 °F 70% 29.70 in 10.0 mi ENE 20.7 mph 24.2 mph N/A   Partly Cloudy
8:10 PM 41.0 °F 31.4 °F 30.2 °F 65% 29.69 in 10.0 mi East 21.9 mph 25.3 mph N/A   Mostly Cloudy
8:30 PM 39.2 °F 29.6 °F 30.2 °F 70% 29.67 in 10.0 mi East 19.6 mph 24.2 mph N/A   Mostly Cloudy
8:50 PM 39.2 °F 29.8 °F 28.4 °F 65% 29.67 in 10.0 mi East 18.4 mph 27.6 mph N/A   Mostly Cloudy
9:10 PM 37.4 °F 27.8 °F 28.4 °F 70% 29.70 in 10.0 mi ENE 17.3 mph 25.3 mph N/A   Scattered Clouds
9:30 PM 37.4 °F 28.2 °F 28.4 °F 70% 29.72 in 10.0 mi East 16.1 mph - N/A   Mostly Cloudy
9:50 PM 37.4 °F 28.5 °F 28.4 °F 70% 29.72 in 10.0 mi East 15.0 mph 21.9 mph N/A   Mostly Cloudy
10:10 PM 37.4 °F 27.8 °F 28.4 °F 70% 29.73 in 10.0 mi ENE 17.3 mph - N/A   Mostly Cloudy
10:30 PM 37.4 °F 28.2 °F 28.4 °F 70% 29.74 in 10.0 mi ENE 16.1 mph - N/A   Mostly Cloudy
10:50 PM 37.4 °F 27.8 °F 30.2 °F 75% 29.76 in 10.0 mi ENE 17.3 mph 23.0 mph N/A   Mostly Cloudy
11:10 PM 37.4 °F 28.2 °F 32.0 °F 81% 29.77 in 10.0 mi ENE 16.1 mph - N/A   Mostly Cloudy
11:30 PM 37.4 °F 28.9 °F 32.0 °F 81% 29.78 in 10.0 mi ENE 13.8 mph - N/A   Mostly Cloudy
11:50 PM 37.4 °F 28.2 °F 32.0 °F 81% 29.77 in 10.0 mi ENE 16.1 mph 23.0 mph N/A   Overcast